User: anonymous   Login
Location: Unspecified
(0.0000°N, 0.0000°E)
Time: 03:12:52
(UTC+00:00)
Language:

GONETS M 12 (M22) - Orbit

View from above orbital plane
View from above orbital plane
View from above satellite
View from above satellite

Ground track
Ground track

The orbit data is extracted from the following two-line orbital elements,

1 40553U 15020B   18267.77843336 -.00000008 +00000-0 -13120-3 0  9990
2 40553 082.4936 349.8558 0014600 027.1923 119.6374 12.42873476158153
Epoch (UTC): 24 September 2018 18:40:56
Eccentricity: 0.0014600
inclination: 82.4936°
perigee height: 1483 km
apogee height: 1506 km
right ascension of ascending node: 349.8558°
argument of perigee: 27.1923°
revolutions per day: 12.42873476
mean anomaly at epoch: 119.6374°
orbit number at epoch: 15815

The dashed part of the orbit path shows where the satellite is in the earth's shadow,  

DLR